Regional Weather Roundup
Issued by NWS

Home | Current Version | Previous Version | Graphics & Text | Print | Product List | Glossary On
Versions: 1 2 3 4 5 6 7 8 9 10 11 12 13 14 15 16 17 18 19 20 21 22 23 24 25 26 27
000
ASUS45 KBOU 150906
RWRCO

WEATHER ROUNDUP FOR COLORADO
NATIONAL WEATHER SERVICE DENVER/BOULDER CO
300 AM MDT TUE APR 15 2014

NOTE: "FAIR" INDICATES FEW OR NO CLOUDS BELOW 12000 FEET WITH NO
SIGNIFICANT WEATHER AND/OR OBSTRUCTIONS TO VISIBILITY.

COZ001>005-013-030-031-151000-
...NORTHWEST COLORADO...

CITY           SKY/WX    TMP DP  RH WIND       PRES   REMARKS
CRAIG          CLEAR     25  18  74 E5        30.20F WCI  19
HAYDEN         CLEAR     25  18  74 E10       30.21F WCI  15
MEEKER         CLEAR     26  19  74 CALM      30.22F
MOUNT WERNER   CLEAR     23   9  54 SW16      30.19F WCI  10
STEAMBOAT SPGS CLEAR     20  16  83 CALM      30.21S
WALDEN         CLEAR     18   9  68 E7        30.15S WCI   8
$$

COZ006>008-011-151000-
...WEST CENTRAL VALLEYS...

CITY           SKY/WX    TMP DP  RH WIND       PRES   REMARKS
GRAND JUNCTION CLEAR     33  21  61 E12       30.22F WCI  24
MONTROSE       CLEAR     29  21  72 SE8       30.28F WCI  21
EAGLE          CLEAR     25  19  80 CALM      30.26F
RIFLE          CLEAR     27  22  81 E5        30.26S WCI  22
DELTA          CLEAR     33  23  69 E6        30.28S WCI  27
NUCLA            N/A     28  19  69 E8        30.27F WCI  20
$$

COZ017>023-064>068-151000-
...SOUTHWEST COLORADO...

CITY           SKY/WX    TMP DP  RH WIND       PRES   REMARKS
DURANGO        CLEAR     25   5  42 CALM      30.21F
CORTEZ         CLEAR     22  15  75 E7        30.24F WCI  13
PAGOSA SPRINGS CLEAR     27   9  46 CALM      30.22F
TELLURIDE      PTCLDY    21  16  79 E8        30.25F WCI  12
WOLF CREEK PAS PTCLDY    19  -8  30 SW9       30.25S WCI   9
$$

COZ009-010-012-014-032>034-037-058>063-151000-
...CENTRAL COLORADO...

CITY           SKY/WX    TMP DP  RH WIND       PRES   REMARKS
ASPEN          PTCLDY    20  12  71 S6        30.23F WCI  12
BUENA VISTA    CLEAR     26   8  46 NW9       30.17S WCI  16
COPPER MTN     CLEAR     18   5  57 W22G29    30.18F WCI   0
BERTHOUD PASS  FAIR       9   0  66 NW32G51   30.10R HAZE    WCI -15
COTTONWOOD PAS CLEAR     28   1  31 NW14G30   30.15F WCI  17
GUNNISON       PTCLDY    19  10  68 CALM      30.28S
KREMMLING      CLEAR     18  10  73 E5        30.24F WCI  11
LEADVILLE      CLEAR      9   0  67 NE6       30.19S WCI  -1
MONARCH PASS   PTCLDY    10   7  85 MISG      30.27S
SALIDA         CLEAR     31   8  38 NW9       30.25S WCI  23
SUNLIGHT       CLEAR     19  14  79 CALM      30.23F
WILKERSON PASS PTCLDY    18   3  53 NW10G21   30.16F WCI   6
$$

COZ069>075-151000-
...SAN LUIS VALLEY/SANGRE DE CRISTO MOUNTAINS...

CITY           SKY/WX    TMP DP  RH WIND       PRES   REMARKS
ALAMOSA        CLEAR     25  16  68 NW3       30.20F
LA VETA PASS   CLEAR     21   3  45 SW17G26   30.12F WCI   7
SAGUACHE       PTCLDY    23   7  50 NW13      30.21F WCI  11
$$

COZ035-036-038>040-151000-
...NORTHERN COLORADO FRONT RANGE...

CITY           SKY/WX    TMP DP  RH WIND       PRES   REMARKS
DENVER INTL AP CLEAR     33  21  61 SW18      30.04F WCI  22
DMNS CITY PARK   N/A     34  19  54 S7        30.05F WCI  28
AURORA         PTCLDY    32  19  59 S13       30.05F WCI  22
FRONT RANGE AP NOT AVBL
ERIE MUNI ARPT CLEAR     31  23  71 CALM      30.04F
BOULDER MUN AP CLEAR     37  19  48 CALM      30.03F
CENTENNIAL     CLEAR     33  16  49 SW9       30.06F WCI  25
BROOMFIELD     CLEAR     41  16  36 W22G28    30.04F
FORT COLLINS   CLEAR     27  19  74 E6        30.05F WCI  20
LONGMONT       CLEAR     27  23  84 CALM      30.05F
$$

COZ041-046-047-076>085-087-088-151000-
...PIKES PEAK/PALMER DIVIDE AND SOUTHERN FOOTHILLS...

CITY           SKY/WX    TMP DP  RH WIND       PRES   REMARKS
COLO. SPRINGS  CLEAR     26  20  77 CALM      30.13F
A. F. ACADEMY  PTCLDY    20  17  88 NW5       30.11F WCI  13
ELLICOTT       NOT AVBL
FALCON         CLEAR     24  21  89 W7        30.12F WCI  16
FORT CARSON    PTCLDY    22  19  88 NW6       30.11F WCI  15
LIMON          CLEAR     28  22  78 SW8       30.10F WCI  20
MONUMENT HILL  CLEAR     27  18  69 SW15      30.07F WCI  15
TRINIDAD       CLEAR     28  22  78 W9        30.14F WCI  19
$$

COZ042>045-048>051-090-091-151000-
...NORTHEAST COLORADO...

CITY           SKY/WX    TMP DP  RH WIND       PRES   REMARKS
GREELEY ARPT   CLEAR     23  16  74 N3        30.05F
AKRON          CLEAR     29  21  72 SW21      30.05F WCI  16
BURLINGTON     CLEAR     25  17  72 SW10      30.13F WCI  15
WRAY           CLEAR     28  21  76 SW9       30.11F WCI  19
STERLING       CLEAR     28  23  80 SW5       30.06F WCI  23
HOLYOKE        CLEAR     27  19  74 SW9       30.09F WCI  17
FORT MORGAN    CLEAR     26  18  72 CALM      30.06F
$$

COZ086-089-092>099-151000-
...SOUTHEAST COLORADO...

CITY           SKY/WX    TMP DP  RH WIND       PRES   REMARKS
PUEBLO         CLEAR     30  26  85 W5        30.15F WCI  25
LA JUNTA       CLEAR     29  23  78 W8        30.16F WCI  21
LAMAR          CLEAR     24  17  74 SW7       30.16F WCI  16
SPRINGFIELD      N/A     22  18  85 SW7       30.17F WCI  13
$$



USA.gov is the U.S. government's official web portal to all federal, state and local government web resources and services.